STARLINK-32314, 61709

Orbit data source: Space-Track

STARLINK-32314, 61709 is a payload satellite owned by SpaceX/Seattle (US) in LEO that was launched on Wed, 30 Oct 2024 UTC via an FALCON 9 launch vehicle from the Air Force Eastern Test Range (AFETR). Payload-class satellites include a variety of spacecraft equipped with specific instruments for various scientific and technological missions. These include communications satellites like Starlink; space stations such as the ISS; scientific satellites like the Hubble; Earth observation satellites from companies like Planet Labs, Umbra, and HawkEye 360; GPS; miniature CubeSats for education and research; and military/defense satellites.

Loading next visibility...
Identifier
61709, 2024-196C
Orbit
LEO
Last TLE update
12 hours ago
Origin
Manufacturer
SpaceX/Seattle
Mission
Operational Commercial Communications
Bus & Motor
STARLINK V2M, Unknown motor
Mass
730 kg wet, ~700 kg dry
Launch date (UTC)
2024-10-30 (8 months ago)
Launch vehicle
FALCON 9
Launch site
Air Force Eastern Test Range (AFETR)
Object type
Payload
Rocket body
Debris
Shape & HBR
Box + 2 Pan, 29 m
Radar Cross Section
36.964 m², Large (>1 m²)

Expand to show TLE details & history

TLE from 12 hours ago
0 STARLINK-32314
1 61709U 24196C   25186.24151947  .00000904  00000-0  42664-4 0  9999
2 61709  53.1590 170.5367 0001146  89.0273 271.0859 15.30195163 39062
Epoch: 2025-07-05T05:47Z
TLE epoch observation values (Epoch: 2025-07-05T05:47:47.282Z)
Latitude
-0.00001°
Longitude
160.1073°
Altitude
476.114 km
Speed
7.629 km/s
True Right ascension
11h 22m 08s
True Declination
0° 00' 00"
Sunlit
Object was in daylight at epoch
Visualization orbit readout
Latitude
-37.48947°
Longitude
12.64476°
Altitude
487.952 km
Speed
7.621 km/s
Apparent Right ascension
21h 57m 09s
Apparent Declination
-56° 50' 45"
Sunlit
Object is in daylight
Visualization observer readout
Local Sidereal Time
05:41:25
Azimuth
225.196° WSW
Elevation
-46.18°
Doppler factor
1
Orbital elements
Apogee altitude
476.272 km
Perigee altitude
474.701 km
Semi-major axis
6,853.623 km
Eccentricity
0.00011
Inclination
53.159°
RAAN
170.5367°
Arg. of periapsis
89.0273°
True anomaly
Unknown
Mean anomaly
271.0859°
Eccentric anomaly
Unknown
Mean motion
3.82528 °/min
Orbital period
94.11 mins
BSTAR
0.000042664
Loading maneuver chart data...
Loading SW <> Apogee altitude chart data...
Loading historical data...
Loading historical data...
Loading historical data...
Loading historical data...
Loading historical data...
Loading historical data...
Loading historical data...

STARLINK-32314 Visibility forecast

Observer location: undefined°, undefined°

Span
Click to sort rows by Start time (UTC) header in descending order
Start Az.
Max El. time (UTC)
Max El. Az.
Max El.
End time (UTC)
End Az.
5 mins2025-07-06 00:46:00.305Z178.601° S2025-07-06 00:48:00.305Z138.042° SSE22.593°2025-07-06 00:51:00.305Z77.154° E
5 mins2025-07-06 02:24:00.305Z268.072° W2025-07-06 02:26:00.305Z325.192° NNW32.291°2025-07-06 02:29:00.305Z34.483° NE
5 mins2025-07-06 07:21:00.305Z342.466° N2025-07-06 07:23:00.305Z30.137° NE24.331°2025-07-06 07:26:00.305Z87.495° E
5 mins2025-07-06 08:59:00.305Z285.964° WNW2025-07-06 09:01:00.305Z223.806° SW34.167°2025-07-06 09:04:00.305Z156.173° SSE
|